Skip Page Navigation
NASA JPL Caltech
NASA Logo - Jet Propulsion Laboratory + View the NASA Portal
+ Near-Earth Object (NEO) Program
Search JPL
JPL Home Earth Solar System Stars & Galaxies Technology
JPL Solar System Dynamics
BODIES ORBITS EPHEMERIDES TOOLS PHYSICAL DATA DISCOVERY FAQ SITE MAP
JPL Small-Body Database Browser
Search: [ help ]  
20461 Dioretsa (1999 LD31)
Classification: Centaur          SPK-ID: 2020461
Ephemeris | Orbit Diagram | Orbital Elements | Physical Parameters | Discovery Circumstances | Close-Approach Data ]

[ show orbit diagram ]
Orbital Elements at Epoch 2456800.5 (2014-May-23.0) TDB
Reference: JPL 5 (heliocentric ecliptic J2000)
 Element Value Uncertainty (1-sigma)   Units 
e .8997289384930274 4.2151e-06  
a 23.76731041003993 0.0010112 AU
q 2.383173443980425 1.4839e-06 AU
i 160.4028542094499 2.3169e-05 deg
node 297.2091191086077 7.8716e-05 deg
peri 102.3972988274013 0.00014001 deg
M 45.15608758752649 0.0028819 deg
tp 2451491.872038433785
(1999-Nov-09.37203843)
0.00036339 JED
period 42322.22427285185
115.87
2.701
0.007395
d
yr
n .008506169186172164 5.4287e-07 deg/d
Q 45.15144737609943 0.0019211 AU
  Orbit Determination Parameters
   # obs. used (total)      277  
   data-arc span      927 days (2.54 yr)  
   first obs. used      1998-06-16  
   last obs. used      2000-12-29  
   planetary ephem.      DE431  
   SB-pert. ephem.      SB431-BIG16  
   condition code      2  
   fit RMS      .5327  
   data source      ORB  
   producer      Otto Matic  
   solution date      2014-Jun-09 22:43:05  

Additional Information
 Earth MOID = 1.4749 AU 
 T_jup = -1.539 
[ show covariance matrix ]

Ephemeris | Orbit Diagram | Orbital Elements | Physical Parameters | Discovery Circumstances | Close-Approach Data ]

Physical Parameter Table
Parameter Symbol Value Units Sigma Reference Notes
absolute magnitude H 13.8 mag n/a PDS3 (MPO 7841)  

20461 Dioretsa           Discovered 1999 June 8 by the Lincoln Laboratory Near Earth Asteroid Research Team at Socorro.
As befits the first numbered asteroid in a retrograde orbit, Dioretsa is the word asteroid spelled backwards. The name was suggested independently by K. Kitterman and S. Cooksey of Flagstaff, Arizona.
NOTE: some special characters may not display properly (any characters within {} are an attempt to place the proper accent above a character)
Reference: 20030501/MPCPages.arcLast Updated: 2003-10-02

[ show close-approach data ]
Ephemeris | Orbit Diagram | Orbital Elements | Physical Parameters | Discovery Circumstances | Close-Approach Data ]
ABOUT SSD CREDITS/AWARDS PRIVACY/COPYRIGHT GLOSSARY LINKS
FirstGov 2014-Jul-24 17:44 UT
(server date/time)  
NASA Home Page
Site Manager:   Donald K. Yeomans
Webmaster  Alan B. Chamberlin